When you browse on this site, cookies collect data to enhance your experience and personalize the content and advertising you see.
Visit our Privacy Policy to learn more. By continuing to use the site, you agree to this use of cookies and data.
  • In Czech Republic
  • List of Countries
  • For 7 days
  • Water Temperature
  • Satellite Maps
  • Weather Map
  • Weather Widgets
  • user-avatar
    Login

    Hourly Weather Saidpur

    Today, 23 March, Saturday

    Time Temperature Precipitation Wind Pressure Humidity
    00:00 +29°C° 0 mm 2 mps 754 mmHg 37%
    01:00 +29°C° 0 mm 2 mps 754 mmHg 38%
    02:00 +28°C° 0 mm 2 mps 754 mmHg 39%
    03:00 +27°C° 0 mm 2 mps 753 mmHg 39%
    04:00 +26°C° 0 mm 2 mps 754 mmHg 38%
    05:00 +26°C° 0 mm 2 mps 754 mmHg 37%
    06:00 +25°C° 0 mm 3 mps 754 mmHg 34%
    07:00 +27°C° 0 mm 4 mps 755 mmHg 30%
    08:00 +29°C° 0 mm 5 mps 755 mmHg 26%
    09:00 +30°C° 0 mm 6 mps 755 mmHg 23%
    10:00 +33°C° 0 mm 6 mps 755 mmHg 19%
    11:00 +34°C° 0 mm 6 mps 755 mmHg 16%
    12:00 +36°C° 0 mm 7 mps 755 mmHg 15%
    13:00 +36°C° 0 mm 7 mps 754 mmHg 13%
    14:00 +38°C° 0 mm 7 mps 754 mmHg 12%
    15:00 +38°C° 0 mm 7 mps 753 mmHg 11%
    16:00 +36°C° 0 mm 6 mps 753 mmHg 12%
    17:00 +35°C° 0 mm 5 mps 753 mmHg 12%
    18:00 +34°C° 0 mm 2 mps 752 mmHg 15%
    19:00 +31°C° 0 mm 2 mps 753 mmHg 15%
    20:00 +30°C° 0 mm 2 mps 753 mmHg 16%
    21:00 +29°C° 0 mm 2 mps 754 mmHg 16%
    22:00 +29°C° 0 mm 2 mps 754 mmHg 16%
    23:00 +28°C° 0 mm 2 mps 754 mmHg 17%

    Tomorrow, 24 March, Sunday

    Time Temperature Precipitation Wind Pressure Humidity
    00:00 +27°C° 0 mm 2 mps 754 mmHg 17%
    01:00 +27°C° 0 mm 2 mps 754 mmHg 18%
    02:00 +26°C° 0 mm 2 mps 754 mmHg 19%
    03:00 +25°C° 0 mm 2 mps 753 mmHg 20%
    04:00 +24°C° 0 mm 1 mps 754 mmHg 22%
    05:00 +24°C° 0 mm 1 mps 754 mmHg 23%
    06:00 +23°C° 0 mm 1 mps 754 mmHg 25%
    07:00 +25°C° 0 mm 1 mps 754 mmHg 23%
    08:00 +27°C° 0 mm 1 mps 755 mmHg 22%
    09:00 +29°C° 0 mm 1 mps 756 mmHg 20%
    10:00 +31°C° 0 mm 1 mps 755 mmHg 19%
    11:00 +33°C° 0 mm 1 mps 755 mmHg 17%
    12:00 +35°C° 0 mm 1 mps 755 mmHg 16%
    13:00 +36°C° 0 mm 2 mps 754 mmHg 15%
    14:00 +37°C° 0 mm 2 mps 753 mmHg 14%
    15:00 +38°C° 0 mm 3 mps 753 mmHg 13%
    16:00 +37°C° 0 mm 3 mps 752 mmHg 14%
    17:00 +36°C° 0 mm 2 mps 752 mmHg 15%
    18:00 +35°C° 0 mm 2 mps 752 mmHg 16%
    19:00 +34°C° 0 mm 2 mps 753 mmHg 16%
    20:00 +32°C° 0 mm 1 mps 753 mmHg 17%
    21:00 +30°C° 0 mm 1 mps 754 mmHg 17%
    22:00 +30°C° 0 mm 1 mps 754 mmHg 18%
    23:00 +29°C° 0 mm 1 mps 754 mmHg 19%

    Day after tomorrow, 25 March, Monday

    Time Temperature Precipitation Wind Pressure Humidity
    00:00 +28°C° 0 mm 1 mps 754 mmHg 20%
    01:00 +27°C° 0 mm 1 mps 754 mmHg 22%
    02:00 +27°C° 0 mm 1 mps 753 mmHg 24%
    03:00 +26°C° 0 mm 1 mps 753 mmHg 26%
    04:00 +25°C° 0 mm 2 mps 753 mmHg 28%
    05:00 +25°C° 0 mm 2 mps 754 mmHg 29%
    06:00 +24°C° 0 mm 2 mps 754 mmHg 31%
    07:00 +26°C° 0 mm 3 mps 754 mmHg 29%
    08:00 +28°C° 0 mm 3 mps 755 mmHg 28%
    09:00 +30°C° 0 mm 3 mps 756 mmHg 26%
    10:00 +33°C° 0 mm 3 mps 755 mmHg 24%
    11:00 +34°C° 0 mm 3 mps 755 mmHg 21%
    12:00 +36°C° 0 mm 2 mps 755 mmHg 18%
    13:00 +37°C° 0 mm 2 mps 754 mmHg 17%
    14:00 +38°C° 0 mm 2 mps 753 mmHg 15%
    15:00 +39°C° 0 mm 2 mps 752 mmHg 13%
    16:00 +38°C° 0 mm 2 mps 752 mmHg 14%
    17:00 +37°C° 0 mm 2 mps 752 mmHg 15%
    18:00 +35°C° 0 mm 1 mps 752 mmHg 16%
    19:00 +34°C° 0 mm 1 mps 753 mmHg 17%
    20:00 +33°C° 0 mm 1 mps 753 mmHg 18%
    21:00 +29°C° 0 mm 0 mps 754 mmHg 19%
    22:00 +29°C° 0 mm 0 mps 754 mmHg 20%
    23:00 +30°C° 0 mm 1 mps 754 mmHg 21%

    26 March, Tuesday

    Time Temperature Precipitation Wind Pressure Humidity
    00:00 +29°C° 0 mm 1 mps 754 mmHg 22%
    01:00 +29°C° 0 mm 1 mps 754 mmHg 24%
    02:00 +28°C° 0 mm 2 mps 753 mmHg 27%
    03:00 +27°C° 0 mm 3 mps 753 mmHg 29%
    04:00 +26°C° 0 mm 3 mps 753 mmHg 33%
    05:00 +26°C° 0 mm 3 mps 753 mmHg 37%
    06:00 +25°C° 0 mm 3 mps 754 mmHg 41%
    07:00 +27°C° 0 mm 3 mps 755 mmHg 38%
    08:00 +29°C° 0 mm 3 mps 756 mmHg 36%
    09:00 +30°C° 0 mm 3 mps 756 mmHg 33%
    10:00 +33°C° 0 mm 3 mps 756 mmHg 29%
    11:00 +35°C° 0 mm 3 mps 756 mmHg 26%
    12:00 +37°C° 0 mm 3 mps 756 mmHg 22%
    13:00 +37°C° 0 mm 4 mps 755 mmHg 22%
    14:00 +37°C° 0 mm 5 mps 754 mmHg 22%
    15:00 +37°C° 0 mm 5 mps 753 mmHg 22%
    16:00 +36°C° 0 mm 5 mps 753 mmHg 23%
    17:00 +35°C° 0 mm 4 mps 753 mmHg 25%
    18:00 +35°C° 0 mm 3 mps 752 mmHg 26%
    19:00 +33°C° 0.3 mm 3 mps 753 mmHg 30%
    20:00 +31°C° 0.3 mm 2 mps 754 mmHg 34%
    21:00 +29°C° 0.3 mm 2 mps 755 mmHg 38%
    22:00 +29°C° 0 mm 2 mps 755 mmHg 40%
    23:00 +29°C° 0 mm 2 mps 755 mmHg 42%

    27 March, Wednesday

    Time Temperature Precipitation Wind Pressure Humidity
    00:00 +28°C° 0 mm 2 mps 756 mmHg 43%
    01:00 +28°C° 0 mm 2 mps 755 mmHg 45%
    02:00 +28°C° 0 mm 1 mps 755 mmHg 47%
    03:00 +27°C° 0 mm 1 mps 755 mmHg 49%
    04:00 +27°C° 0.4 mm 1 mps 755 mmHg 51%
    05:00 +26°C° 0.4 mm 2 mps 755 mmHg 53%
    06:00 +25°C° 0.4 mm 2 mps 755 mmHg 55%
    07:00 +27°C° 0.2 mm 2 mps 756 mmHg 51%
    08:00 +28°C° 0.2 mm 3 mps 756 mmHg 47%
    09:00 +29°C° 0.2 mm 3 mps 757 mmHg 44%
    10:00 +30°C° 0 mm 3 mps 757 mmHg 40%
    11:00 +33°C° 0 mm 3 mps 756 mmHg 36%
    12:00 +34°C° 0 mm 3 mps 756 mmHg 32%
    13:00 +35°C° 0 mm 2 mps 755 mmHg 30%
    14:00 +36°C° 0 mm 2 mps 754 mmHg 29%
    15:00 +35°C° 0 mm 1 mps 753 mmHg 27%
    16:00 +35°C° 0 mm 1 mps 753 mmHg 28%
    17:00 +34°C° 0 mm 1 mps 753 mmHg 29%
    18:00 +34°C° 0 mm 1 mps 753 mmHg 30%
    19:00 +33°C° 0 mm 1 mps 754 mmHg 31%
    20:00 +32°C° 0 mm 1 mps 754 mmHg 33%
    21:00 +31°C° 0 mm 1 mps 755 mmHg 34%
    22:00 +30°C° 0 mm 1 mps 755 mmHg 35%
    23:00 +30°C° 0 mm 1 mps 755 mmHg 36%

    28 March, Thursday

    Time Temperature Precipitation Wind Pressure Humidity
    00:00 +27°C° 0 mm 0 mps 755 mmHg 37%
    01:00 +27°C° 0 mm 0 mps 754 mmHg 39%
    02:00 +26°C° 0 mm 0 mps 754 mmHg 40%
    03:00 +26°C° 0 mm 0 mps 754 mmHg 42%
    04:00 +27°C° 0 mm 1 mps 754 mmHg 43%
    05:00 +27°C° 0 mm 1 mps 754 mmHg 45%
    06:00 +26°C° 0 mm 1 mps 755 mmHg 47%
    07:00 +28°C° 0 mm 2 mps 755 mmHg 45%
    08:00 +29°C° 0 mm 2 mps 756 mmHg 43%
    09:00 +31°C° 0 mm 3 mps 756 mmHg 41%
    10:00 +34°C° 0 mm 2 mps 756 mmHg 36%
    11:00 +35°C° 0 mm 2 mps 756 mmHg 31%
    12:00 +36°C° 0 mm 1 mps 755 mmHg 26%
    13:00 +38°C° 0 mm 2 mps 754 mmHg 24%
    14:00 +38°C° 0 mm 2 mps 753 mmHg 22%
    15:00 +39°C° 0 mm 2 mps 753 mmHg 19%
    16:00 +38°C° 0 mm 2 mps 753 mmHg 20%
    17:00 +37°C° 0 mm 2 mps 752 mmHg 21%
    18:00 +36°C° 0 mm 1 mps 752 mmHg 21%
    19:00 +35°C° 0 mm 1 mps 753 mmHg 22%
    20:00 +34°C° 0 mm 1 mps 753 mmHg 23%
    21:00 +32°C° 0 mm 1 mps 754 mmHg 24%
    22:00 +32°C° 0 mm 1 mps 754 mmHg 26%
    23:00 +31°C° 0 mm 1 mps 754 mmHg 27%
    Show more